Date String (YYYY-MM-DD hh:mm:ss) UTC,Instrument flags,Ambient pressure (hPa),Sample flow (lpm),Bypass flow (lpm),Sample temperature (°C),Ambient temperature (°C),ASC tube jacket temperature (°C),LED temperature (°C),Box temperature (°C),Sample RH (%),Span deviation,Mass concentration (μg/m³),Mass concentration (μg/m³),Mass concentration (μg/m³)
DateTimeUTC,F1_M11,P_M11,Q1_M11,Q2_M11,T1_M11,T2_M11,T3_M11,T4_M11,T5_M11,U1_M11,ZSPAN_M11,X0_M11,X2_M11,X1_M11
2023-03-06 21:00:00,,0822.6,5.00,0.00,21.8,20.0,00.0,30.6,23.4,10.9,0000.0,0012.02,0004.16,0003.51
2023-03-06 21:01:00,,0822.6,5.00,0.00,21.8,20.0,00.0,30.6,23.4,10.9,0000.0,0012.37,0004.18,0003.51
2023-03-06 21:02:00,,0822.6,5.00,0.00,21.7,20.0,00.0,30.6,23.4,10.8,0000.0,0012.38,0004.17,0003.52
2023-03-06 21:03:00,,0822.6,5.00,0.00,21.7,20.0,00.0,30.6,23.4,11.0,0000.0,0012.51,0004.18,0003.53
2023-03-06 21:04:00,,0822.6,5.00,0.00,21.7,20.0,00.0,30.6,23.4,11.2,0000.0,0012.66,0004.22,0003.56
2023-03-06 21:05:00,,0822.6,5.01,0.00,21.7,20.4,00.0,30.6,23.4,11.3,0000.0,0012.05,0004.24,0003.56
2023-03-06 21:06:00,,0822.6,5.00,0.00,21.8,21.6,00.0,30.6,23.7,11.2,0000.0,0011.93,0004.26,0003.57
2023-03-06 21:07:00,,0822.7,5.01,0.00,22.0,22.6,00.0,30.6,24.0,11.2,0000.0,0011.98,0004.27,0003.58
2023-03-06 21:08:00,,0822.6,5.00,0.00,22.1,22.6,00.0,30.6,24.0,11.1,0000.0,0012.07,0004.28,0003.60
2023-03-06 21:09:00,,0822.6,4.99,0.00,22.1,22.1,00.0,30.7,24.0,11.1,0001.4,0011.73,0004.30,0003.60
2023-03-06 21:10:00,,0822.6,5.00,0.00,22.1,21.8,00.0,30.7,23.9,11.2,0003.9,0011.26,0004.33,0003.62
2023-03-06 21:11:00,,0822.6,4.99,0.00,22.1,21.4,00.0,30.7,23.9,11.1,0003.4,0010.75,0004.35,0003.64
2023-03-06 21:12:00,,0822.6,4.99,0.00,22.1,21.2,00.0,30.7,23.8,10.8,0004.3,0010.34,0004.33,0003.65
2023-03-06 21:13:00,,0822.6,5.00,0.00,22.1,21.0,00.0,30.8,23.7,10.5,0001.7,0010.86,0004.35,0003.65
2023-03-06 21:14:00,,0822.6,5.01,0.00,22.1,20.8,00.0,30.8,23.7,10.6,0003.8,0011.54,0004.35,0003.65
2023-03-06 21:15:00,,0822.7,5.00,0.00,22.0,20.6,00.0,30.8,23.6,10.8,0002.9,0011.61,0004.33,0003.64
2023-03-06 21:16:00,,0822.7,5.00,0.00,22.0,20.4,00.0,30.8,23.6,10.7,0003.7,0011.32,0004.32,0003.64
2023-03-06 21:17:00,,0822.6,5.00,0.00,22.0,20.4,00.0,30.8,23.6,10.9,0000.2,0011.18,0004.31,0003.66
2023-03-06 21:18:00,,0822.6,4.99,0.00,22.0,20.3,00.0,30.8,23.6,11.1,0000.0,0011.14,0004.33,0003.67
2023-03-06 21:19:00,,0822.6,5.00,0.00,21.9,20.2,00.0,30.8,23.5,11.0,0000.0,0010.61,0004.35,0003.69
2023-03-06 21:20:00,,0822.6,5.00,0.00,21.9,20.1,00.0,30.7,23.5,11.0,0000.0,0010.29,0004.35,0003.70
2023-03-06 21:21:00,,0822.6,5.00,0.00,21.9,20.1,00.0,30.7,23.5,11.1,0000.0,0010.30,0004.38,0003.71
2023-03-06 21:22:00,,0822.6,4.99,0.00,21.9,20.0,00.0,30.7,23.5,10.9,0000.0,0010.15,0004.35,0003.71
2023-03-06 21:23:00,,0822.6,4.99,0.00,21.8,20.0,00.0,30.7,23.4,10.9,0000.0,0010.10,0004.33,0003.71
2023-03-06 21:24:00,,0822.5,4.99,0.00,21.8,19.9,00.0,30.7,23.3,11.2,0000.0,0009.31,0004.32,0003.72
2023-03-06 21:25:00,,0822.6,5.01,0.00,21.7,19.8,00.0,30.7,23.3,11.4,0000.0,0008.51,0004.33,0003.74
2023-03-06 21:26:00,,0822.6,5.00,0.00,21.7,19.8,00.0,30.6,23.3,11.3,0000.0,0008.00,0004.35,0003.75
2023-03-06 21:27:00,,0822.6,5.00,0.00,21.7,20.3,00.0,30.6,23.4,11.4,0000.0,0008.69,0004.39,0003.77
2023-03-06 21:28:00,,0822.6,5.04,0.00,21.8,21.6,00.0,30.6,23.7,11.4,0000.0,0008.78,0004.42,0003.78
2023-03-06 21:29:00,,0822.6,5.03,0.00,22.0,22.8,00.0,30.6,24.0,11.3,0000.0,0008.82,0004.39,0003.79
2023-03-06 21:30:00,,0822.5,4.99,0.00,22.1,22.7,00.0,30.7,24.1,11.3,0000.0,0008.80,0004.35,0003.80
2023-03-06 21:31:00,,0822.5,4.98,0.00,22.1,22.3,00.0,30.7,24.0,11.1,-000.9,0009.03,0004.35,0003.82
2023-03-06 21:32:00,,0822.6,4.98,0.00,22.1,21.8,00.0,30.7,23.9,11.0,-001.8,0009.63,0004.37,0003.84
2023-03-06 21:33:00,,0822.6,5.01,0.00,22.1,21.4,00.0,30.8,23.9,11.1,-002.7,0010.07,0004.48,0003.86
2023-03-06 21:34:00,,0822.5,5.00,0.00,22.1,21.2,00.0,30.8,23.8,11.3,-003.1,0011.01,0004.53,0003.89
2023-03-06 21:35:00,,0822.6,5.00,0.00,22.1,20.9,00.0,30.8,23.8,11.0,-003.0,0011.51,0004.54,0003.90
2023-03-06 21:36:00,,0822.6,5.00,0.00,22.1,20.7,00.0,30.8,23.6,10.9,-002.5,0012.10,0004.58,0003.91
2023-03-06 21:37:00,,0822.6,5.00,0.00,22.0,20.5,00.0,30.8,23.6,11.0,-001.9,0013.16,0004.64,0003.93
2023-03-06 21:38:00,,0822.6,4.98,0.00,22.0,20.4,00.0,30.8,23.6,11.1,-001.1,0013.26,0004.63,0003.94
2023-03-06 21:39:00,,0822.6,5.00,0.00,22.0,20.3,00.0,30.8,23.5,11.1,-001.2,0013.58,0004.62,0003.94
2023-03-06 21:40:00,,0822.6,5.01,0.00,22.0,20.2,00.0,30.8,23.5,11.0,-000.9,0014.13,0004.65,0003.95
2023-03-06 21:41:00,,0822.6,5.00,0.00,21.9,20.1,00.0,30.8,23.5,11.1,0000.9,0014.96,0004.70,0003.95
2023-03-06 21:42:00,,0822.6,5.00,0.00,21.9,20.1,00.0,30.8,23.5,11.2,0002.0,0015.28,0004.70,0003.94
2023-03-06 21:43:00,,0822.6,5.00,0.00,21.9,20.1,00.0,30.7,23.5,11.5,0001.5,0014.77,0004.69,0003.94
2023-03-06 21:44:00,,0822.6,5.00,0.00,21.9,20.0,00.0,30.7,23.5,11.7,0001.7,0014.60,0004.66,0003.95
2023-03-06 21:45:00,,0822.6,5.00,0.00,21.9,19.9,00.0,30.7,23.4,11.7,0002.8,0013.40,0004.63,0003.96
2023-03-06 21:46:00,,0822.6,5.01,0.00,21.8,20.2,00.0,30.7,23.4,11.7,0002.3,0012.93,0004.66,0003.99
2023-03-06 21:47:00,,0822.7,5.01,0.00,21.9,21.4,00.0,30.7,23.7,11.7,0000.0,0012.61,0004.67,0004.02
2023-03-06 21:48:00,,0822.7,4.99,0.00,22.1,22.5,00.0,30.7,24.0,11.7,0000.0,0013.11,0004.65,0004.04
2023-03-06 21:49:00,,0822.7,4.98,0.00,22.2,22.7,00.0,30.7,24.1,11.6,0000.6,0012.27,0004.65,0004.06
2023-03-06 21:50:00,,0822.7,4.97,0.00,22.1,22.1,00.0,30.8,23.9,11.4,0000.4,0011.92,0004.68,0004.09
2023-03-06 21:51:00,,0822.7,5.00,0.00,22.1,21.6,00.0,30.8,23.8,11.3,0000.2,0011.35,0004.73,0004.12
2023-03-06 21:52:00,,0822.6,5.01,0.00,22.1,21.2,00.0,30.8,23.7,11.2,0001.3,0010.65,0004.74,0004.15
2023-03-06 21:53:00,,0822.6,4.99,0.00,22.1,20.9,00.0,30.8,23.6,11.1,0001.6,0010.14,0004.77,0004.17
2023-03-06 21:54:00,,0822.7,4.99,0.00,22.0,20.7,00.0,30.8,23.6,11.3,0001.7,0009.92,0004.79,0004.21
2023-03-06 21:55:00,,0822.7,4.99,0.00,22.0,20.6,00.0,30.8,23.5,11.5,0001.6,0010.08,0004.79,0004.22
2023-03-06 21:56:00,,0822.7,5.03,0.00,22.0,20.5,00.0,30.8,23.6,11.8,0001.2,0010.95,0004.84,0004.25
2023-03-06 21:57:00,,0822.7,5.00,0.00,22.0,20.4,00.0,30.8,23.5,11.8,0000.3,0010.99,0004.84,0004.25
2023-03-06 21:58:00,,0822.7,5.03,0.00,22.0,20.3,00.0,30.8,23.5,11.7,0000.9,0010.85,0004.86,0004.27
2023-03-06 21:59:00,,0822.7,4.99,0.00,21.9,20.2,00.0,30.8,23.4,11.6,0001.1,0009.75,0004.88,0004.29
